Weather reports worldwide

Advertisment
San Jose, ca, United States of America (2074876): temperature & dewpoint: 23.05.2020 06:00:00 - 29.05.2020 06:00:00 (PDT)San Jose, ca, United States of America (2074876): wind speed: 23.05.2020 06:00:00 - 29.05.2020 06:00:00 (PDT)San Jose, ca, United States of America (2074876): wind direction: 23.05.2020 06:00:00 - 29.05.2020 06:00:00 (PDT)San Jose, ca, United States of America (2074876): reduced air pressure: 23.05.2020 06:00:00 - 29.05.2020 06:00:00 (PDT)San Jose, ca, United States of America (2074876): visibility: 23.05.2020 06:00:00 - 29.05.2020 06:00:00 (PDT)
Date & Time tt [°C] td [°C] ff [km/h] ff [kn] dd ppp [hPa] vv [km]
29.05.2020 06:00:00 14,4 11,1 11 6 SE 1011,8 16
29.05.2020 05:00:00 14,4 11,1 11 6 SSE 1011,8 16
29.05.2020 04:00:00 15,6 11,7 5 3 S 1012,0 16
29.05.2020 03:00:00 15,6 11,1 0 0 N 1012,1 16
29.05.2020 02:00:00 15,6 12,8 0 0 N 1012,5 16
29.05.2020 01:00:00 15,6 11,1 5 3 SSE 1012,4 16
29.05.2020 00:00:00 16,1 12,2 0 0 N 1012,7 16
28.05.2020 23:00:00 16,1 12,2 11 6 NW 1013,3 16
28.05.2020 22:00:00 17,2 12,8 15 8 NW 1013,0 16
28.05.2020 21:00:00 19,4 13,9 13 7 WNW 1012,0 16
28.05.2020 20:00:00 20,6 13,9 16 9 NW 1011,6 16
28.05.2020 19:00:00 23,9 13,3 18 10 NW 1010,9 16
28.05.2020 18:00:00 25,6 13,9 21 11 NW 1010,7 16
28.05.2020 17:00:00 25,6 13,3 22 12 NW 1010,8 16
28.05.2020 16:00:00 26,7 14,4 21 11 NW 1010,8 16
28.05.2020 15:00:00 26,7 14,4 22 12 NW 1011,1 16
28.05.2020 14:00:00 27,2 15,0 16 9 NW 1011,3 16
28.05.2020 13:00:00 26,1 14,4 11 6 WNW 1011,7 16
28.05.2020 12:00:00 25,0 13,9 8 4 NNW 1012,2 16
28.05.2020 11:00:00 22,2 13,9 9 5 NW 1012,6 16
28.05.2020 10:00:00 21,1 13,3 8 4 N 1012,7 16
28.05.2020 09:00:00 18,9 13,3 5 3 - 1013,0 16
28.05.2020 08:00:00 17,2 13,3 0 0 N 1013,1 16
28.05.2020 07:00:00 16,1 13,3 0 0 N 1013,0 16
28.05.2020 06:00:00 14,4 12,8 8 4 NW 1012,8 16
28.05.2020 05:00:00 15,0 12,8 9 5 NW 1012,7 16
28.05.2020 04:00:00 15,6 13,3 9 5 NW 1012,5 16
28.05.2020 03:00:00 16,1 13,3 9 5 NW 1012,4 16
28.05.2020 02:00:00 16,7 13,3 11 6 NW 1012,3 16
28.05.2020 01:00:00 17,2 13,9 9 5 NW 1012,4 16
28.05.2020 00:00:00 17,8 13,9 9 5 NNW 1012,3 16
27.05.2020 23:00:00 18,9 13,9 9 5 NW 1012,2 16
27.05.2020 22:00:00 20,0 12,2 13 7 NW 1011,8 16
27.05.2020 21:00:00 22,2 12,8 15 8 NW 1011,3 16
27.05.2020 20:00:00 25,0 11,7 15 8 NNW 1011,1 16
27.05.2020 19:00:00 27,2 11,1 18 10 NNW 1010,5 16
27.05.2020 18:00:00 30,0 10,0 22 12 NNW 1010,2 16
27.05.2020 17:00:00 31,1 10,6 24 13 NW 1010,2 16
27.05.2020 16:00:00 32,2 12,2 24 13 NNW 1010,3 16
27.05.2020 15:00:00 33,3 12,8 21 11 NNW 1010,6 16
27.05.2020 14:00:00 33,9 12,2 21 11 NW 1010,7 16
27.05.2020 13:00:00 33,9 11,7 15 8 N 1010,8 16
27.05.2020 12:00:00 32,2 12,8 0 0 N 1011,1 16
27.05.2020 11:00:00 29,4 12,8 5 3 - 1011,5 16
27.05.2020 10:00:00 26,7 12,2 0 0 N 1011,9 16
27.05.2020 09:00:00 25,0 11,7 0 0 N 1012,1 16
27.05.2020 08:00:00 22,8 11,7 0 0 N 1011,8 16
27.05.2020 07:00:00 21,1 11,1 8 4 SSE 1011,5 16
27.05.2020 06:00:00 20,0 15,6 5 3 SE 1011,2 16
27.05.2020 05:00:00 20,0 15,6 5 3 NW 1010,8 16
27.05.2020 04:00:00 21,7 8,9 5 3 W 1010,7 16
27.05.2020 03:00:00 22,8 8,9 11 6 SE 1010,8 16
27.05.2020 02:00:00 22,8 8,9 11 6 SE 1011,1 16
27.05.2020 01:00:00 23,9 8,9 8 4 S 1011,2 16
27.05.2020 00:00:00 23,9 10,6 8 4 SSE 1011,2 16
26.05.2020 23:00:00 25,0 13,3 5 3 SE 1011,1 16
26.05.2020 22:00:00 26,7 13,3 8 4 WSW 1010,7 16
26.05.2020 21:00:00 28,3 12,2 9 5 WNW 1010,2 16
26.05.2020 20:00:00 30,0 12,2 15 8 NW 1009,9 16
26.05.2020 19:00:00 32,2 11,7 24 13 NNW 1009,3 16
26.05.2020 18:00:00 33,3 11,7 24 13 NNW 1009,3 16
26.05.2020 17:00:00 33,3 13,3 26 14 NW 1009,5 16
26.05.2020 16:00:00 34,4 13,3 26 14 NW 1009,7 16
26.05.2020 15:00:00 35,0 12,2 18 10 NNW 1009,9 16
26.05.2020 14:00:00 35,0 11,7 13 7 NNW 1010,2 16
26.05.2020 13:00:00 33,9 11,7 11 6 NNW 1010,8 16
26.05.2020 12:00:00 32,8 11,1 8 4 N 1011,0 16
26.05.2020 11:00:00 28,3 12,8 0 0 N 1011,4 16
26.05.2020 10:00:00 25,6 13,9 0 0 N 1011,6 16
26.05.2020 09:00:00 22,8 13,9 9 5 - 1012,0 16
26.05.2020 08:00:00 21,1 14,4 0 0 N 1011,6 16
26.05.2020 07:00:00 18,9 15,0 5 3 NW 1011,4 16
26.05.2020 06:00:00 17,2 13,9 8 4 NW 1010,9 16
26.05.2020 05:00:00 18,3 14,4 8 4 N 1010,5 16
26.05.2020 04:00:00 18,9 15,0 0 0 N 1010,4 16
26.05.2020 03:00:00 18,3 14,4 8 4 NW 1010,8 16
26.05.2020 02:00:00 19,4 14,4 8 4 N 1010,9 16
26.05.2020 01:00:00 20,0 14,4 8 4 N 1011,4 16
26.05.2020 00:00:00 22,2 13,3 0 0 N 1011,4 16
25.05.2020 23:00:00 22,8 11,1 8 4 NW 1011,7 16
25.05.2020 22:00:00 23,9 10,6 11 6 NW 1011,4 16
25.05.2020 21:00:00 26,7 8,9 11 6 WNW 1010,7 16
25.05.2020 20:00:00 29,4 8,3 16 9 NNW 1010,2 16
25.05.2020 19:00:00 30,6 9,4 22 12 N 1009,9 16
25.05.2020 18:00:00 32,2 8,9 26 14 NW 1009,8 16
25.05.2020 17:00:00 33,3 10,0 22 12 NW 1010,1 16
25.05.2020 16:00:00 34,4 9,4 24 13 NW 1010,1 16
25.05.2020 15:00:00 33,9 7,8 18 10 NW 1010,8 16
25.05.2020 14:00:00 33,3 8,9 15 8 NNW 1011,4 16
25.05.2020 13:00:00 32,2 8,3 11 6 - 1011,8 16
25.05.2020 12:00:00 31,1 7,2 5 3 - 1012,2 16
25.05.2020 11:00:00 28,3 6,7 5 3 - 1012,6 16
25.05.2020 10:00:00 26,1 7,8 5 3 E 1012,8 16
25.05.2020 09:00:00 22,2 7,8 8 4 ESE 1013,1 16
25.05.2020 08:00:00 20,0 8,3 0 0 N 1013,0 16
25.05.2020 07:00:00 17,2 7,8 0 0 N 1012,5 16
25.05.2020 06:00:00 16,7 7,8 0 0 N 1011,9 16
25.05.2020 05:00:00 17,8 7,2 0 0 N 1011,8 16
25.05.2020 04:00:00 17,8 7,2 0 0 N 1011,8 16
25.05.2020 03:00:00 17,8 7,2 8 4 S 1011,7 16
25.05.2020 02:00:00 18,9 7,2 0 0 N 1012,0 16
25.05.2020 01:00:00 20,0 7,8 5 3 ESE 1012,3 16
25.05.2020 00:00:00 20,6 8,3 0 0 N 1012,7 16
24.05.2020 23:00:00 20,6 7,8 8 4 SW 1013,0 16
24.05.2020 22:00:00 21,7 7,2 8 4 WSW 1013,1 16
24.05.2020 21:00:00 22,8 5,6 11 6 WNW 1012,9 16
24.05.2020 20:00:00 24,4 6,7 22 12 NNW 1012,3 16
24.05.2020 19:00:00 26,1 7,8 22 12 NNW 1012,0 16
24.05.2020 18:00:00 27,8 8,9 22 12 NW 1012,0 16
24.05.2020 17:00:00 30,0 7,2 28 15 NNW 1011,9 16
24.05.2020 16:00:00 31,7 5,0 22 12 NNW 1012,2 16
24.05.2020 15:00:00 31,1 4,4 21 11 NNW 1012,8 16
24.05.2020 14:00:00 29,4 6,1 15 8 NW 1013,5 16
24.05.2020 13:00:00 27,8 6,1 13 7 N 1014,4 16
24.05.2020 12:00:00 26,1 6,7 8 4 - 1014,8 16
24.05.2020 11:00:00 22,8 6,7 5 3 SE 1015,4 16
24.05.2020 10:00:00 20,0 7,2 5 3 NNE 1015,9 16
24.05.2020 09:00:00 17,2 7,2 0 0 N 1016,2 16
24.05.2020 08:00:00 14,4 6,1 0 0 N 1015,6 16
24.05.2020 07:00:00 12,8 6,7 8 4 S 1015,5 16
24.05.2020 06:00:00 12,2 6,1 0 0 N 1015,1 16
24.05.2020 05:00:00 13,3 7,2 0 0 N 1014,8 16
24.05.2020 04:00:00 12,8 8,3 0 0 N 1014,6 16
24.05.2020 03:00:00 12,8 8,3 0 0 N 1014,6 16
24.05.2020 02:00:00 14,4 8,9 0 0 N 1014,8 16
24.05.2020 01:00:00 14,4 8,9 0 0 N 1014,8 16
24.05.2020 00:00:00 14,4 8,9 8 4 N 1015,1 16
23.05.2020 23:00:00 14,4 8,3 11 6 NW 1015,1 16
23.05.2020 22:00:00 16,1 8,9 13 7 NNW 1015,0 16
23.05.2020 21:00:00 16,7 7,8 9 5 NW 1014,3 16
23.05.2020 20:00:00 19,4 5,6 15 8 N 1014,1 16
23.05.2020 19:00:00 20,6 6,1 24 13 NNW 1013,7 16
23.05.2020 18:00:00 22,8 7,8 28 15 N 1013,4 16
23.05.2020 17:00:00 27,2 3,9 29 16 NNW 1013,1 16
23.05.2020 16:00:00 27,8 1,7 28 15 NNW 1013,3 16
23.05.2020 15:00:00 27,8 0,6 26 14 NW 1013,4 16
23.05.2020 14:00:00 27,2 1,7 22 12 WNW 1013,7 16
23.05.2020 13:00:00 25,6 4,4 15 8 NNW 1014,2 16
23.05.2020 12:00:00 24,4 4,4 9 5 - 1014,1 16
23.05.2020 11:00:00 22,8 5,0 9 5 - 1014,2 16
23.05.2020 10:00:00 20,0 6,7 8 4 WNW 1014,4 16
23.05.2020 09:00:00 16,1 7,8 0 0 N 1014,6 16
23.05.2020 08:00:00 13,9 7,8 8 4 SSE 1014,4 16
23.05.2020 07:00:00 11,7 7,8 0 0 N 1014,4 16
23.05.2020 06:00:00 10,6 7,2 5 3 S 1013,8 16

tt = temperature
td = dewpoint
ff = wind speed
dd = wind direction
ppp = reduced air pressure
vv = visibility

Next stations